STARLINK-36368

Last updated on Tue Mar 24 2026 00:02:05 GMT+0000 (Coordinated Universal Time)

1 67887U 26035J 26082.50003471 .00070915 00000+0 47425-3 0 9996 2 67887 97.2852 15.6343 0001506 66.4333 198.6353 15.75098244 5982
UTC large
Height (km)
Speed (km/s)
/
Latitude / Longitude
Inclination (degrees)
Orbital Period (minutes)
Azimuth
Elevation
Range (km)
Doppler Factor

Next 0 passes for location: London (51.5072 / 0.1276)

Sorry there are no passes over London.